Flag for Germany Weather past 2 weeks in Mettmann, North Rhine-Westphalia, Germany

Now
34 °F

Passing clouds.


Feels Like: 34 °F
Forecast: 37 / 53 °F
Wind: 1 mph from North

Location: Duesseldorf

Current Time: Mar 6, 2015 at 1:13:43 AM

Latest Report: Mar 6, 2015 at 12:50 AM


Visibility: N/A

Pressure: 30.63 "Hg

Humidity: 87%

Dew point: 30 °F

Location of MettmannLocation

Historic Weather in Mettmann — Graph

°F

Mettmann temperature yesterday

Maximum temperature yesterday: 48 °F (at 2:50 PM)
Minimum temperature yesterday: 36 °F (at 11:20 PM)
Average temperature yesterday: 42 °F

Past Weeks' High & Low Weather Summary

 TemperatureHumidityPressure
High52 °F (Mar 1, 10:50 AM)100% (Feb 22, 1:20 AM)30.66 "Hg (Feb 22, 1:20 AM)
Low28 °F (Feb 28, 4:20 AM)43% (Feb 28, 3:50 PM)29.36 "Hg (Feb 21, 3:50 AM)
Average41 °F79%29.92 "Hg
* Reported Feb 18 11:20 PM — Mar 5 11:50 PM, Mettmann, Weather by CustomWeather, © 2015

Note: Actual official high and low records may vary slightly from our data, if they occured in-between our weather recording intervals... More about our weather records

Advertising

Mettmann weather history for previous 24 hours

 ConditionsComfort  
Time TempWeatherWind HumidityBarometerVisibility
11:50 PM
Thu, Mar 5
36 °FClear.5 mph87%30.63 "Hg10 mi
11:20 PM36 °FClear.5 mph87%30.63 "Hg10 mi
10:50 PM37 °FClear.5 mph81%30.63 "Hg10 mi
10:20 PM39 °FClear.5 mph81%30.63 "Hg10 mi
9:20 PM41 °FClear.5 mph76%30.63 "Hg10 mi
8:50 PM43 °FClear.5 mph71%30.63 "Hg10 mi
8:20 PM43 °FClear.5 mph71%30.63 "Hg10 mi
7:50 PM43 °FClear.5 mph71%30.63 "Hg10 mi
7:20 PM45 °FPassing clouds.3 mph66%30.63 "HgN/A
6:50 PM45 °FPassing clouds.5 mph66%30.63 "HgN/A
6:20 PM46 °FPartly cloudy.3 mph62%30.63 "HgN/A
5:50 PM46 °FPartly sunny.7 mph62%30.60 "HgN/A
5:20 PM48 °FPartly sunny.6 mph58%30.60 "HgN/A
4:50 PM48 °FPartly sunny.10 mph58%30.63 "HgN/A
4:20 PM48 °FPartly sunny.8 mph54%30.63 "HgN/A
3:50 PM48 °FPartly sunny.9 mph58%30.63 "HgN/A
3:20 PM48 °FPartly sunny.8 mph54%30.63 "HgN/A
2:50 PM48 °FPartly sunny.8 mph58%30.63 "HgN/A
2:20 PM46 °FPartly sunny.6 mph62%30.63 "HgN/A
1:50 PM46 °FPartly sunny.6 mph66%30.63 "HgN/A
1:20 PM46 °FPartly sunny.5 mph66%30.66 "HgN/A
12:50 PM45 °FPartly sunny.5 mph81%30.66 "HgN/A
12:20 PM43 °FBroken clouds.5 mph81%30.66 "HgN/A
11:50 AM43 °FBroken clouds.5 mph81%30.66 "HgN/A
11:20 AM41 °FPartly sunny.5 mph87%30.66 "Hg4 mi
10:50 AM39 °FFog.5 mph93%30.66 "Hg3 mi
10:20 AM39 °FFog.6 mph93%30.66 "Hg1 mi
9:50 AM37 °FFog.6 mph100%30.66 "Hg1 mi
9:20 AM37 °FFog.6 mph100%30.66 "Hg1 mi
8:50 AM39 °FFog.6 mph93%30.63 "Hg1 mi
8:20 AM37 °FFog.3 mph100%30.63 "Hg1 mi
7:50 AM37 °FFog.7 mph93%30.63 "Hg2 mi
7:20 AM37 °FFog.5 mph93%30.63 "Hg2 mi
6:50 AM37 °FFog.7 mph93%30.63 "Hg2 mi
6:20 AM37 °FPartly cloudy.6 mph93%30.63 "Hg4 mi
5:20 AM37 °FPassing clouds.6 mph93%30.60 "HgN/A
4:20 AM37 °FPassing clouds.6 mph87%30.57 "HgN/A
3:50 AM39 °FPassing clouds.7 mph81%30.57 "HgN/A
2:50 AM39 °FPassing clouds.8 mph87%30.57 "HgN/A
2:20 AM41 °FPassing clouds.8 mph81%30.54 "HgN/A
1:50 AM41 °FPassing clouds.8 mph81%30.54 "HgN/A
1:20 AM41 °FPartly cloudy.9 mph81%30.54 "HgN/A
Weather by CustomWeather, © 2015

See weather overviewHow to use our weather pages